Wind_Speed
5 5 5 6 6 6 6 5 5 4 3 3 4 4 3 3 3 3 3 3 3 3 4 4 4 4 5 5 5 5 6 6 6 5 5 6 6 7 7 7 7 8 8
5 5 5 5 6 6 6 6 5 4 4 4 4 4 4 4 3 3 4 4 3 4 4 4 4 5 5 5 5 5 5 5 5 5 5 5 6 7 7 7 7 7 8
6 6 6 6 6 6 6 6 5 4 4 4 4 4 5 4 3 3 4 4 5 5 5 5 5 5 6 6 6 6 6 6 5 6 6 6 7 7 7 7 6 7 7
6 6 6 7 7 7 7 7 6 5 5 5 5 5 5 5 5 4 4 4 5 5 5 6 6 6 6 7 7 7 7 6 6 7 7 7 7 7 8 7 7 7 7
7 7 7 8 8 7 7 7 7 6 6 6 6 5 5 5 5 5 5 5 5 5 6 6 6 6 6 6 7 7 8 8 8 8 8 7 7 7 7 8 8 8 8
8 8 9 9 9 8 8 8 8 7 7 7 6 6 6 6 6 5 5 6 6 6 6 7 7 7 7 7 8 8 8 9 9 9 8 8 8 8 8 8 8 9 9
8 9 10 10 9 9 9 9 9 8 8 8 7 7 7 7 7 7 6 7 7 7 7 8 8 8 8 9 9 9 10 10 10 10 9 9 10 10 10 9 9 10 10
9 9 9 9 9 9 9 9 9 9 9 9 9 9 9 8 8 8 8 8 8 8 8 8 9 9 9 10 10 10 11 11 11 11 11 10 11 11 11 11 11 11 11
11 10 10 10 10 10 9 10 10 10 10 10 10 10 10 10 10 10 10 10 10 10 10 9 10 11 11 11 11 11 11 11 12 12 12 12 12 12 12 12 13 12 12
11 11 11 11 11 10 10 11 11 11 11 10 10 10 10 11 11 12 12 12 12 12 12 11 11 11 11 11 11 12 12 12 12 13 13 13 13 13 13 13 14 14 13
12 12 12 12 12 12 12 12 12 12 12 12 12 12 12 12 12 12 12 12 12 12 12 12 12 12 11 11 12 12 12 12 13 13 14 15 15 15 15 15 15 15 15
13 13 13 13 13 13 13 13 13 13 13 13 13 13 13 13 13 13 13 13 13 13 13 13 12 13 13 13 14 14 14 14 14 15 15 15 16 17 17 17 16 16 16
14 14 14 14 14 14 14 14 14 14 14 15 15 14 14 14 14 14 14 14 14 14 14 14 14 14 14 15 16 16 16 16 16 16 16 17 17 18 18 18 17 17 17
14 14 14 14 14 14 15 15 15 16 16 16 16 16 15 15 15 15 15 14 14 14 15 15 15 15 16 17 17 18 18 17 17 17 18 18 18 19 19 19 19 18 19
15 15 15 15 16 16 16 16 16 16 16 16 16 16 17 17 17 16 15 15 15 15 16 15 16 16 17 18 18 19 19 18 18 18 19 19 20 20 21 20 20 20 21
16 16 16 16 16 16 17 17 18 17 17 17 17 17 18 18 18 17 16 16 16 16 16 16 17 17 18 18 19 19 19 19 20 20 20 20 21 21 22 22 22 22 22
18 18 17 17 17 17 17 18 18 18 17 17 17 17 18 17 17 17 17 17 17 17 17 17 18 18 19 19 19 20 20 20 20 21 21 21 22 23 22 23 23 23 24
19 18 17 17 17 17 18 18 18 18 17 17 17 17 17 18 17 16 17 17 16 16 17 18 18 19 19 19 20 20 20 21 21 22 22 23 23 23 23 23 24 24 25
19 19 18 19 18 18 19 19 18 18 17 17 18 18 17 17 17 17 17 17 18 18 18 18 19 19 19 20 20 21 21 22 22 23 23 23 23 23 24 24 25 25 25
20 20 20 20 20 20 19 19 18 18 18 17 17 17 17 17 18 18 18 18 19 19 19 20 20 20 21 21 22 22 22 22 23 23 24 24 24 24 24 25 26 26 26
22 21 21 21 20 20 20 20 19 19 19 18 18 18 18 19 19 19 19 20 20 20 20 20 21 21 21 22 22 22 23 22 23 23 24 24 25 25 25 26 26 26 26
22 22 21 21 21 21 21 21 20 20 20 19 19 19 20 20 21 20 20 21 21 21 21 21 22 22 23 23 23 22 23 24 24 24 24 25 26 27 26 27 27 27 27
22 22 22 21 21 22 22 22 22 22 22 21 21 21 21 22 22 22 22 23 23 23 23 23 23 23 24 25 25 26 26 25 25 25 26 26 27 27 28 28 28 28 29
23 23 23 23 23 23 22 22 22 22 22 23 22 23 23 23 23 23 24 24 24 24 25 25 25 25 26 26 27 27 27 27 27 27 28 28 27 28 28 28 28 28 29
24 24 24 24 24 24 23 23 22 22 23 23 23 24 24 24 25 25 25 26 26 26 26 26 27 27 27 28 28 28 29 29 29 30 29 28 28 28 28 28 28 29 30
26 26 25 25 25 24 24 24 23 23 23 24 24 25 25 26 26 26 27 28 28 28 28 28 29 29 29 29 30 30 30 31 31 31 31 30 30 29 29 29 29 30 30
Wind_Direction
353 356 356 358 355 350 347 348 349 347 346 354 350 338 325 309 292 285 290 294 291 292 288 292 285 273 269 269 277 280 278 276 274 271 266 267 270 269 276 279 281 280 279
343 345 346 347 342 338 335 335 340 336 331 336 334 337 327 314 300 287 289 291 287 291 292 285 284 277 272 274 272 274 275 278 278 279 279 278 274 269 274 278 278 277 277
329 331 333 333 329 327 325 324 328 322 320 321 320 319 322 317 314 303 295 289 283 283 284 284 285 283 276 275 278 277 273 277 274 276 278 280 279 275 272 274 277 278 274
322 321 324 325 320 316 316 315 314 308 307 304 305 306 311 309 302 300 293 290 289 285 284 286 287 286 284 279 278 282 284 282 278 279 281 278 276 277 279 276 275 276 275
314 311 312 315 313 310 309 307 304 300 296 296 297 300 304 299 291 289 288 288 286 285 285 287 287 287 286 282 280 283 285 285 285 286 285 281 278 282 282 280 276 275 276
313 309 307 309 311 309 307 303 300 299 292 287 290 295 293 290 286 286 288 288 285 282 279 281 284 285 283 284 284 283 283 285 286 285 285 281 283 285 286 286 283 280 281
311 305 302 303 306 306 305 301 296 296 290 285 285 288 287 286 287 287 288 288 285 283 278 278 279 281 282 284 284 284 281 280 282 281 281 281 281 282 283 283 282 282 283
306 305 301 298 300 300 300 299 296 293 288 283 283 283 281 280 281 282 283 284 284 285 284 279 278 280 283 284 283 283 282 278 279 278 278 279 280 281 282 281 279 278 278
305 303 301 298 295 293 292 292 292 291 288 286 283 282 281 279 277 277 279 281 282 280 280 280 281 282 284 286 285 284 283 279 278 277 276 276 278 279 280 280 281 280 278
304 301 300 300 297 294 291 289 289 287 286 286 286 285 284 281 279 277 278 281 281 277 278 280 283 282 282 285 285 287 286 284 283 279 274 273 277 279 280 281 282 281 280
299 296 295 295 294 291 290 289 287 284 283 283 283 284 284 283 281 280 279 279 279 277 277 277 278 280 279 281 282 284 287 286 284 280 275 275 277 278 278 279 280 281 281
296 291 290 291 292 291 289 288 286 283 281 280 279 281 282 281 279 279 279 278 278 277 275 275 277 277 277 279 282 284 285 286 284 281 278 277 276 277 276 276 276 278 280
294 289 288 289 288 288 288 287 286 284 280 278 278 278 278 279 278 279 279 279 277 274 273 275 276 277 278 279 282 284 285 285 284 281 279 279 277 276 275 275 275 275 277
289 290 289 288 287 289 289 288 287 285 281 277 276 277 277 277 277 279 278 278 278 276 275 273 275 276 279 280 282 282 282 282 281 281 281 280 281 277 275 274 274 275 276
290 289 289 288 287 289 290 289 288 285 282 278 277 277 277 276 277 278 277 277 276 276 277 277 276 277 280 281 282 282 281 281 280 281 281 280 280 280 277 275 274 276 277
290 288 288 288 289 289 289 291 289 286 283 282 280 279 278 277 276 275 276 277 277 278 279 279 278 277 280 281 281 282 281 281 281 281 280 280 279 280 278 276 275 275 277
290 288 287 287 287 288 290 290 290 286 282 281 280 279 277 274 273 272 274 275 276 279 280 283 282 281 282 283 282 282 283 283 282 281 280 279 279 278 278 276 276 276 276
291 288 286 286 286 287 288 289 287 286 283 280 280 279 277 275 273 273 275 277 279 282 282 283 284 285 284 283 283 283 283 283 282 281 281 281 280 279 278 278 277 279 278
288 288 287 286 286 287 289 289 287 285 282 280 278 276 277 278 275 275 277 278 279 280 282 284 286 286 286 286 285 285 285 284 282 281 282 281 281 280 279 278 278 279 280
283 283 283 284 285 286 286 286 286 284 282 281 279 276 276 278 276 274 276 279 280 281 284 284 285 287 288 288 286 286 287 286 284 283 283 281 281 281 280 279 278 278 278
281 281 281 283 283 283 283 283 283 282 279 278 277 277 277 278 278 276 276 279 281 283 285 287 288 289 289 289 288 286 286 286 286 285 283 282 282 281 280 280 278 278 278
280 280 281 281 281 281 282 282 281 279 277 275 276 277 277 279 278 277 277 279 282 283 285 288 288 288 288 288 286 285 287 288 288 286 285 284 283 282 280 279 277 276 278
279 280 280 280 279 280 281 281 279 276 275 274 276 276 278 279 279 278 278 278 280 282 283 285 287 288 287 286 286 286 287 288 288 286 285 285 284 282 280 279 278 277 278
278 278 279 280 280 280 280 279 278 276 274 273 274 276 277 278 278 279 279 280 281 282 284 285 287 287 288 288 289 288 288 288 287 286 285 284 284 283 282 280 279 278 279
279 279 280 279 280 279 278 278 277 275 274 274 274 276 277 277 278 279 280 280 281 283 284 286 287 287 288 289 289 289 288 288 287 286 285 284 284 285 284 280 278 279 280
279 279 278 278 278 278 279 279 278 277 276 276 276 276 276 277 278 279 280 281 281 283 285 286 287 288 289 289 288 288 288 287 287 286 285 283 283 284 283 282 281 281 280
Height
5869 5868 5866 5865 5864 5862 5861 5860 5859 5858 5857 5856 5856 5855 5855 5854 5854 5854 5853 5853 5853 5852 5852 5852 5852 5852 5852 5851 5851 5851 5851 5850 5850 5850 5849 5849 5849 5848 5848 5847 5847 5846 5846
5868 5867 5866 5864 5863 5862 5860 5859 5858 5857 5856 5856 5855 5854 5854 5853 5853 5852 5852 5852 5851 5851 5851 5851 5850 5850 5850 5850 5850 5849 5849 5849 5848 5848 5848 5847 5847 5847 5846 5846 5845 5844 5843
5867 5866 5865 5863 5862 5861 5859 5858 5857 5856 5856 5855 5854 5854 5853 5852 5852 5851 5851 5850 5850 5850 5849 5849 5849 5848 5848 5848 5848 5848 5847 5847 5847 5846 5846 5845 5845 5844 5844 5844 5843 5842 5841
5866 5865 5863 5862 5861 5859 5858 5857 5856 5855 5854 5854 5853 5852 5852 5851 5850 5850 5849 5849 5849 5848 5848 5847 5847 5846 5846 5846 5846 5846 5845 5845 5844 5844 5844 5843 5843 5843 5842 5842 5841 5840 5839
5864 5863 5862 5860 5859 5858 5857 5855 5855 5854 5853 5852 5851 5851 5850 5849 5849 5848 5848 5847 5847 5846 5846 5845 5845 5844 5844 5844 5844 5844 5843 5843 5843 5842 5842 5841 5841 5840 5840 5839 5839 5838 5837
5862 5861 5860 5858 5857 5856 5855 5854 5853 5852 5851 5850 5850 5849 5848 5847 5847 5846 5846 5845 5845 5844 5844 5843 5843 5842 5842 5842 5842 5841 5841 5841 5840 5840 5840 5839 5839 5838 5838 5837 5837 5836 5835
5860 5859 5857 5856 5855 5854 5853 5852 5851 5850 5849 5848 5848 5847 5846 5846 5845 5844 5844 5843 5842 5842 5842 5841 5840 5840 5840 5839 5839 5838 5838 5838 5838 5837 5837 5836 5836 5836 5835 5835 5834 5834 5833
5857 5856 5855 5854 5853 5852 5851 5850 5849 5848 5847 5846 5845 5844 5844 5843 5843 5842 5841 5841 5840 5839 5839 5838 5838 5837 5837 5836 5836 5835 5835 5835 5834 5834 5834 5833 5833 5833 5832 5832 5831 5831 5830
5855 5853 5852 5851 5850 5849 5848 5847 5846 5845 5844 5843 5842 5842 5841 5840 5840 5839 5838 5838 5837 5836 5836 5835 5835 5834 5833 5833 5833 5832 5832 5831 5831 5830 5830 5830 5830 5829 5828 5828 5828 5828 5827
5852 5851 5849 5848 5847 5846 5845 5844 5843 5842 5841 5840 5839 5838 5838 5837 5836 5836 5835 5834 5834 5833 5832 5832 5831 5831 5830 5829 5829 5828 5828 5827 5827 5827 5826 5826 5826 5825 5825 5824 5824 5823 5823
5849 5847 5846 5845 5844 5843 5842 5841 5840 5839 5838 5837 5836 5835 5834 5833 5832 5832 5831 5830 5830 5829 5828 5828 5828 5827 5826 5826 5825 5825 5824 5823 5823 5822 5822 5822 5821 5821 5821 5820 5820 5819 5818
5845 5844 5842 5841 5840 5839 5838 5837 5837 5836 5835 5834 5833 5832 5831 5829 5828 5827 5827 5826 5825 5825 5824 5824 5823 5823 5822 5822 5821 5821 5820 5819 5818 5818 5817 5817 5816 5816 5816 5815 5815 5814 5814
5842 5840 5839 5838 5836 5835 5834 5833 5832 5831 5830 5829 5828 5827 5826 5825 5824 5823 5822 5821 5820 5820 5819 5819 5818 5818 5818 5817 5816 5816 5815 5814 5813 5813 5812 5811 5811 5811 5810 5810 5810 5809 5809
5837 5836 5835 5834 5832 5831 5830 5829 5828 5826 5825 5824 5823 5823 5822 5821 5820 5819 5817 5816 5815 5815 5814 5814 5814 5813 5813 5812 5811 5810 5809 5809 5808 5807 5807 5806 5805 5805 5804 5804 5804 5804 5803
5833 5832 5831 5830 5828 5827 5825 5824 5822 5821 5820 5819 5818 5817 5817 5816 5815 5814 5813 5812 5811 5810 5810 5809 5809 5808 5807 5806 5805 5804 5804 5803 5802 5802 5801 5800 5799 5799 5798 5798 5798 5797 5797
5828 5827 5826 5824 5823 5821 5820 5819 5817 5815 5814 5813 5812 5811 5811 5810 5809 5808 5808 5807 5807 5806 5805 5804 5803 5802 5802 5801 5800 5799 5798 5797 5796 5795 5795 5794 5793 5792 5791 5791 5791 5790 5790
5823 5822 5820 5819 5818 5816 5815 5813 5811 5810 5808 5807 5806 5806 5805 5804 5803 5803 5802 5802 5801 5801 5800 5799 5798 5797 5796 5795 5794 5792 5792 5791 5790 5789 5788 5787 5786 5785 5785 5784 5783 5783 5782
5817 5816 5815 5814 5812 5811 5809 5807 5806 5804 5803 5802 5801 5800 5799 5799 5798 5798 5797 5797 5796 5795 5795 5794 5792 5791 5790 5789 5787 5786 5785 5784 5783 5782 5781 5780 5779 5778 5777 5776 5776 5775 5774
5812 5811 5809 5808 5807 5805 5803 5801 5800 5798 5797 5797 5796 5795 5794 5793 5793 5793 5792 5792 5791 5790 5789 5788 5787 5786 5784 5782 5781 5780 5779 5777 5776 5775 5774 5773 5772 5771 5770 5769 5768 5767 5766
5807 5805 5804 5802 5800 5799 5797 5795 5794 5793 5792 5791 5790 5789 5789 5788 5787 5787 5787 5786 5786 5785 5784 5782 5781 5780 5778 5776 5775 5773 5772 5770 5769 5768 5766 5765 5764 5763 5762 5761 5760 5759 5758
5800 5799 5797 5796 5794 5792 5791 5789 5788 5787 5786 5785 5784 5784 5783 5783 5782 5782 5781 5781 5780 5779 5778 5776 5775 5773 5772 5770 5768 5766 5765 5763 5762 5760 5759 5758 5756 5755 5754 5752 5751 5751 5750
5793 5792 5790 5789 5787 5786 5784 5782 5781 5780 5779 5779 5779 5778 5778 5777 5776 5776 5775 5775 5774 5773 5772 5770 5769 5767 5765 5763 5761 5760 5758 5756 5754 5753 5751 5750 5748 5747 5745 5744 5743 5742 5741
5786 5785 5783 5782 5780 5778 5777 5775 5773 5772 5772 5772 5772 5772 5771 5771 5770 5770 5769 5768 5767 5766 5765 5764 5762 5760 5759 5757 5754 5752 5750 5749 5747 5745 5744 5742 5740 5738 5737 5736 5734 5733 5732
5779 5778 5776 5775 5773 5771 5770 5768 5766 5765 5764 5765 5765 5765 5765 5764 5764 5763 5762 5761 5760 5759 5758 5756 5755 5753 5751 5749 5747 5745 5743 5741 5739 5737 5735 5733 5731 5730 5728 5727 5725 5724 5723
5771 5770 5769 5767 5766 5764 5763 5761 5760 5759 5758 5758 5758 5758 5758 5757 5756 5756 5755 5754 5753 5751 5750 5749 5747 5745 5743 5741 5739 5736 5734 5732 5730 5728 5726 5725 5723 5721 5719 5718 5717 5716 5714
5763 5762 5761 5760 5758 5757 5755 5754 5753 5752 5751 5751 5751 5751 5750 5749 5749 5748 5747 5745 5744 5743 5741 5740 5738 5736 5734 5732 5729 5727 5725 5723 5721 5718 5717 5715 5714 5712 5711 5709 5708 5707 5705